Weather History for Kirksville, MO

Change the Weather History Date:

Tuesday, May 28, 2013

  Actual Average Record
Temperature  
Mean Temperature 68 °F 66 °F  
Max Temperature 76 °F 76 °F 92 °F (1942)
Min Temperature 60 °F 56 °F 37 °F (1947)
Degree Days  
Heating Degree Days 0 2  
Month to date heating degree days 189 145  
Since 1 July heating degree days 6035 5835  
Cooling Degree Days 3 3  
Month to date cooling degree days 46 46  
Year to date cooling degree days 56 53  
Growing Degree Days 18 (Base 50)    
Moisture  
Dew Point 65 °F    
Average Humidity 91    
Maximum Humidity 100    
Minimum Humidity 82    
Precipitation  
Precipitation 2.05 in 0.16 in 2.05 in (2013)
Month to date precipitation 7.37 4.46  
Year to date precipitation 23.34 13.65  
Sea Level Pressure  
Sea Level Pressure 29.78 in    
Wind  
Wind Speed 10 mph (South)    
Max Wind Speed 25 mph    
Max Gust Speed 32 mph    
Visibility 8 miles    
Events Fog , Rain , Thunderstorm    
T = Trace of Precipitation, MM = Missing Value Source: NWS Daily Summary

Daily Weather History Graph

Daily Weather History Graph

Search for Another Location

Airport:

Trip Planner

Search our weather history database for the weather conditions in past years. The results will help you decide how hot, cold, wet, or windy it might be!

Date:

Astronomy

May. 28, 2013 Rise Set
Actual Time 5:44 AM CDT 8:30 PM CDT
Civil Twilight 5:13 AM CDT 9:02 PM CDT
Nautical Twilight 4:33 AM CDT 9:42 PM CDT
Astronomical Twilight 3:47 AM CDT 10:28 PM CDT
Moon 11:54 PM CDT (5/28) 9:33 AM CDT (5/28)
Length of Visible Light 15h 49m
Length of Day
14h 45m
Waning Gibbous, 82% of the Moon is Illuminated
May 28
Waning Gibbous
May 31
Last Quarter
Jun 8
New
Jun 16
First Quarter
Jun 23
Full

Hourly Weather History & Observations

Time (CDT) Temp. Dew Point Humidity Pressure Visibility Wind Dir Wind Speed Gust Speed Precip Events Conditions
12:55 AM 70.0 °F 64.9 °F 84% 29.77 in 10.0 mi South 12.7 mph - N/A   Overcast
1:55 AM 69.1 °F 64.9 °F 87% 29.74 in 8.0 mi SSE 13.8 mph - 0.00 in Rain Light Rain
2:26 AM 68.0 °F 64.4 °F 88% 29.74 in 9.0 mi SSE 13.8 mph - 0.00 in Thunderstorm Overcast
2:39 AM 66.2 °F 64.4 °F 94% 29.81 in 1.8 mi WSW 41.4 mph 65.6 mph 0.00 in Rain , Thunderstorm Light Thunderstorms and Rain
2:42 AM 64.4 °F 64.4 °F 100% 29.84 in 0.5 mi West 24.2 mph 65.6 mph 0.00 in Fog , Rain , Thunderstorm Heavy Thunderstorms and Rain
2:52 AM 62.6 °F 62.6 °F 100% 29.77 in 0.8 mi NNW 10.4 mph 24.2 mph 0.58 in Rain , Thunderstorm Heavy Thunderstorms and Rain
2:53 AM 62.6 °F 62.6 °F 100% 29.77 in 1.0 mi North 11.5 mph - 0.59 in Rain , Thunderstorm Heavy Thunderstorms and Rain
2:55 AM 62.1 °F 62.1 °F 100% 29.75 in 1.5 mi North 13.8 mph 17.3 mph 0.60 in Rain , Thunderstorm Thunderstorms and Rain
2:58 AM 62.6 °F 60.8 °F 94% 29.74 in 3.0 mi NNE 10.4 mph 17.3 mph 0.01 in Rain , Thunderstorm Thunderstorms and Rain
3:17 AM 62.6 °F 62.6 °F 100% 29.72 in 10.0 mi SSE 17.3 mph - 0.02 in Rain , Thunderstorm Light Rain
3:23 AM 62.6 °F 62.6 °F 100% 29.74 in 10.0 mi South 18.4 mph 24.2 mph 0.02 in Rain , Thunderstorm Light Rain
3:44 AM 62.6 °F 62.6 °F 100% 29.77 in 10.0 mi SSW 6.9 mph 18.4 mph 0.03 in Rain Light Rain
3:55 AM 62.1 °F 62.1 °F 100% 29.77 in 10.0 mi South 3.5 mph - 0.03 in Rain , Thunderstorm Light Rain
4:09 AM 62.6 °F 62.6 °F 100% 29.77 in 10.0 mi SSE 8.1 mph - 0.00 in   Overcast
4:26 AM 62.6 °F - N/A% 29.76 in 10.0 mi SE 8.1 mph - 0.00 in Thunderstorm Overcast
4:55 AM 61.0 °F - N/A% 29.78 in 0.5 mi NNE 8.1 mph 20.7 mph 0.53 in Rain , Thunderstorm Heavy Thunderstorms and Rain
5:04 AM 60.8 °F - N/A% 29.77 in - ESE 13.8 mph - 0.10 in Thunderstorm Thunderstorm
5:13 AM 60.8 °F - N/A% 29.77 in 2.0 mi SSE 17.3 mph - 0.21 in Rain , Thunderstorm Heavy Thunderstorms and Rain
5:25 AM 62.6 °F - N/A% 29.76 in 4.0 mi South 9.2 mph - 0.27 in Rain Rain
5:29 AM 62.6 °F - N/A% 29.76 in 5.0 mi SSE 11.5 mph - 0.27 in Rain , Thunderstorm Light Rain
5:47 AM 62.6 °F - N/A% 29.76 in 10.0 mi South 9.2 mph - 0.28 in Rain Light Rain
5:55 AM 63.0 °F - N/A% 29.76 in 10.0 mi South 8.1 mph - 0.28 in   Overcast
6:15 AM 64.4 °F - N/A% 29.76 in 10.0 mi SSE 11.5 mph - N/A   Overcast
6:55 AM 64.0 °F - N/A% 29.75 in 10.0 mi SSE 12.7 mph - N/A   Overcast
7:55 AM 64.9 °F 64.0 °F 97% 29.76 in 9.0 mi SSE 9.2 mph - N/A   Overcast
8:55 AM 68.0 °F 66.0 °F 93% 29.75 in 8.0 mi South 11.5 mph - N/A   Overcast
9:55 AM 71.1 °F 66.9 °F 87% 29.75 in 10.0 mi SSW 12.7 mph 19.6 mph N/A   Overcast
10:16 AM 71.6 °F 66.2 °F 83% 29.76 in 10.0 mi SSW 15.0 mph 19.6 mph N/A   Overcast
10:55 AM 73.0 °F 68.0 °F 84% 29.75 in 10.0 mi SSW 16.1 mph - N/A   Overcast
11:32 AM 73.4 °F 69.8 °F 88% 29.76 in 10.0 mi SSW 17.3 mph 25.3 mph N/A   Mostly Cloudy
11:40 AM 75.2 °F 69.8 °F 83% 29.76 in 10.0 mi SSW 15.0 mph 24.2 mph N/A   Overcast
11:47 AM 75.2 °F 69.8 °F 83% 29.76 in 10.0 mi SSW 12.7 mph 24.2 mph N/A   Overcast
11:55 AM 75.0 °F 70.0 °F 84% 29.75 in 10.0 mi SSW 16.1 mph 23.0 mph N/A   Overcast
12:06 PM 75.2 °F 69.8 °F 83% 29.76 in 10.0 mi SSW 15.0 mph 25.3 mph N/A   Overcast
12:22 PM 75.2 °F 69.8 °F 83% 29.76 in 10.0 mi SSW 15.0 mph 23.0 mph N/A   Overcast
12:55 PM 73.9 °F 69.1 °F 85% 29.75 in 10.0 mi SSW 13.8 mph - N/A   Overcast
1:55 PM 73.0 °F 69.1 °F 87% 29.76 in 9.0 mi SSW 10.4 mph 19.6 mph N/A   Overcast
2:55 PM 75.0 °F 70.0 °F 84% 29.77 in 8.0 mi SSW 9.2 mph 17.3 mph N/A   Overcast
3:53 PM 73.4 °F 69.8 °F 88% 29.79 in 7.0 mi SSW 12.7 mph - 0.00 in Rain , Thunderstorm Light Thunderstorms and Rain
3:55 PM 73.0 °F 70.0 °F 90% 29.78 in 6.0 mi SSW 11.5 mph - 0.00 in Rain , Thunderstorm Light Thunderstorms and Rain
4:06 PM 71.6 °F 68.0 °F 88% 29.79 in 2.5 mi SW 16.1 mph 26.5 mph 0.04 in Rain , Thunderstorm Light Thunderstorms and Rain
4:10 PM 69.8 °F 68.0 °F 94% 29.79 in 4.0 mi WSW 9.2 mph 23.0 mph 0.04 in Rain , Thunderstorm Light Thunderstorms and Rain
4:34 PM 69.8 °F 66.2 °F 88% 29.77 in 10.0 mi SSW 8.1 mph - 0.04 in   Partly Cloudy
4:55 PM 70.0 °F 69.1 °F 97% 29.76 in 8.0 mi South 5.8 mph - 0.04 in   Clear
5:55 PM 73.0 °F 69.1 °F 87% 29.78 in 9.0 mi SSW 13.8 mph 21.9 mph N/A   Partly Cloudy
6:15 PM 71.6 °F 68.0 °F 88% 29.80 in 9.0 mi SSW 9.2 mph - N/A Thunderstorm Mostly Cloudy
6:55 PM 70.0 °F 68.0 °F 93% 29.74 in 3.0 mi SSW 13.8 mph 18.4 mph 0.08 in Rain , Thunderstorm Heavy Thunderstorms and Rain
7:17 PM 69.8 °F 66.2 °F 88% 29.75 in 9.0 mi SSW 12.7 mph 20.7 mph 0.00 in   Scattered Clouds
7:55 PM 70.0 °F 66.9 °F 90% 29.79 in 8.0 mi SSW 8.1 mph - 0.00 in   Mostly Cloudy
8:55 PM 68.0 °F 66.0 °F 93% 29.83 in 9.0 mi NNW 5.8 mph - N/A   Clear
9:37 PM 64.4 °F 60.8 °F 88% 29.88 in 10.0 mi NE 16.1 mph 25.3 mph N/A Thunderstorm Overcast
9:55 PM 62.1 °F 57.9 °F 86% 29.88 in 10.0 mi NE 9.2 mph 16.1 mph 0.01 in Rain , Thunderstorm Light Thunderstorms and Rain
10:28 PM 60.8 °F 59.0 °F 94% 29.87 in 6.0 mi East 8.1 mph - 0.03 in Rain , Thunderstorm Light Thunderstorms and Rain
10:44 PM 60.8 °F 59.0 °F 94% 29.88 in 10.0 mi Variable 3.5 mph - 0.03 in   Overcast
10:55 PM 60.1 °F 59.0 °F 96% 29.88 in 10.0 mi East 5.8 mph - 0.04 in Rain Light Rain
11:18 PM 60.8 °F 59.0 °F 94% 29.86 in 10.0 mi East 8.1 mph - 0.00 in   Mostly Cloudy
11:42 PM 60.8 °F 59.0 °F 94% 29.87 in 10.0 mi ESE 11.5 mph - 0.00 in Rain , Thunderstorm Light Rain
11:55 PM 61.0 °F 59.0 °F 93% 29.86 in 5.0 mi ESE 10.4 mph - 0.05 in Rain , Thunderstorm Light Thunderstorms and Rain